Wind_Speed
13 19 24 27 29 29 28 28 27 27 26 26 26 27 26 26 24 22 19 18 17 16 15 15 15 16 17 18 17 17 17 16 15 14 14 14 15 15 15 15 15 16 16 16 15 15 15 15 15 15 14 14 14 13 13 13 12 12 12 12 12 12 11 11 11 10 10 9 9 8 8 7 7 6 6 5 5 5 5 4 4 3 3 3 4 4
12 17 22 25 27 28 29 29 28 28 27 27 27 28 28 27 25 23 21 19 17 16 16 16 16 17 18 19 18 17 16 15 15 14 14 15 15 16 16 16 17 17 17 16 16 16 16 16 15 15 14 14 13 13 13 12 12 12 12 12 12 12 12 11 11 10 10 9 9 8 7 6 6 5 5 5 5 4 4 4 4 4 4 4 4 5
11 14 19 23 25 26 27 28 28 28 28 27 28 28 29 28 26 24 22 20 19 18 17 17 17 18 19 19 18 17 16 15 15 15 15 15 16 17 17 18 18 18 17 17 17 16 16 16 15 15 14 14 13 13 12 12 12 12 12 12 12 12 12 11 11 10 10 9 8 7 6 5 5 4 4 4 4 4 4 4 4 5 5 5 6 6
11 12 16 20 22 23 24 25 25 25 26 27 27 28 29 28 27 24 22 21 20 19 19 18 18 18 19 19 18 17 16 15 15 15 16 16 17 18 18 19 19 18 18 17 17 17 16 15 15 14 14 13 13 13 12 12 12 12 12 13 13 12 12 11 11 10 9 8 7 6 5 4 3 3 3 3 4 4 5 5 5 6 6 7 7 7
11 12 15 17 17 18 21 21 22 22 24 26 27 28 29 29 28 26 23 21 21 20 20 19 19 19 19 19 18 17 16 16 16 16 17 18 18 19 19 19 19 19 18 17 17 16 15 15 14 14 13 13 13 12 12 12 12 12 13 13 13 13 12 11 10 10 9 8 7 6 4 3 2 2 2 3 4 4 5 5 5 6 7 7 8 8
11 13 16 16 15 14 17 18 19 21 22 24 26 28 29 29 28 26 25 24 23 22 21 21 20 20 19 18 18 17 17 16 17 17 18 19 19 20 20 20 19 19 18 17 17 16 15 14 14 13 13 13 12 12 12 12 12 12 13 13 13 12 12 11 10 9 8 7 6 5 4 2 2 1 2 3 4 4 4 4 5 6 7 7 8 8
10 13 15 16 15 15 15 16 18 20 22 22 23 24 26 26 25 24 24 25 25 24 24 23 22 21 20 19 18 18 17 17 17 18 19 19 20 20 20 20 19 19 18 17 16 16 15 14 14 13 13 13 12 12 12 12 12 12 12 12 12 12 11 10 9 9 8 6 5 4 3 2 1 0 1 3 3 4 4 4 4 5 7 7 7 7
9 11 13 13 13 13 15 16 17 19 21 22 21 21 21 22 22 21 21 22 23 24 25 26 25 24 23 22 21 20 19 19 19 19 20 20 20 20 20 20 19 19 18 17 17 16 15 15 14 13 13 13 13 12 12 12 12 12 12 12 11 11 10 10 9 8 7 6 5 4 3 2 1 1 1 2 3 3 3 3 4 5 6 7 7 7
9 8 10 11 11 11 12 14 17 19 20 21 22 22 20 20 19 19 18 18 18 20 23 26 27 27 25 24 23 22 21 21 21 21 21 21 21 21 21 20 20 19 18 18 17 17 16 15 15 14 14 13 13 13 12 12 12 12 11 11 11 10 10 9 9 8 7 6 5 3 3 2 2 2 2 3 3 3 3 4 5 6 6 6 6 6
11 8 8 10 12 11 9 9 15 20 21 21 22 23 23 22 20 17 15 14 15 17 19 22 24 24 24 23 23 22 22 22 22 22 22 22 22 22 21 21 20 20 19 19 18 18 17 16 16 15 15 14 14 13 12 12 12 12 11 11 10 10 10 9 9 8 7 6 5 4 3 3 3 3 3 4 4 4 5 6 6 6 6 6 6 5
10 9 8 8 10 11 9 9 14 20 21 21 21 22 24 25 24 20 15 14 14 15 16 17 18 19 20 21 22 22 22 22 22 22 23 23 22 22 22 21 21 21 21 20 20 19 19 18 17 16 16 15 14 13 12 12 12 11 11 11 11 10 10 10 9 8 7 6 5 5 4 4 4 4 4 4 5 5 6 6 6 6 6 5 5 4
9 9 8 7 7 8 8 8 12 17 20 18 16 15 18 23 27 25 21 18 17 15 14 14 16 17 18 19 21 22 23 24 23 23 24 24 24 23 22 22 22 21 21 21 21 20 20 19 18 17 16 15 14 13 12 11 11 11 11 11 11 11 11 10 10 9 8 7 7 6 5 5 5 5 5 5 5 5 6 6 6 6 5 5 4 4
11 10 10 9 8 7 7 7 9 12 14 14 12 11 13 20 25 26 24 24 22 19 15 14 14 15 17 19 20 22 23 25 25 24 25 25 24 23 22 22 22 22 22 22 22 21 21 20 19 18 17 16 15 13 12 12 11 11 11 11 12 12 11 11 11 10 9 8 7 7 6 6 5 5 5 5 6 6 6 6 6 6 5 4 4 4
10 11 11 10 9 9 9 10 9 9 10 12 13 14 16 20 23 24 23 23 24 22 19 15 13 13 14 16 18 20 22 24 24 24 24 24 24 23 22 22 22 22 22 22 22 21 21 21 20 20 18 17 15 14 13 12 12 11 12 12 12 12 12 12 11 10 10 9 8 7 6 6 5 5 5 5 6 6 6 6 6 5 5 5 4 4
11 10 9 8 8 9 10 12 12 11 11 13 15 16 18 20 21 21 19 20 22 23 20 17 14 12 11 12 14 17 20 22 22 22 22 23 23 23 22 22 22 22 22 22 22 22 22 21 21 20 18 17 15 14 13 12 12 12 12 12 12 12 12 12 11 10 10 9 8 7 7 6 6 6 6 6 6 6 5 5 5 5 5 5 5 5
13 11 8 7 7 9 10 11 11 11 13 15 16 16 16 17 19 21 20 20 21 22 20 16 12 8 8 10 12 14 17 19 20 21 21 21 21 22 21 21 22 22 22 22 21 21 21 20 19 18 17 16 14 14 13 12 12 12 12 12 12 12 11 11 11 10 9 9 8 7 7 6 6 6 6 6 6 6 5 5 5 5 5 5 6 6
11 11 10 9 9 8 9 10 10 10 11 13 14 15 16 18 20 21 21 22 21 20 18 15 8 3 3 6 9 12 15 17 18 20 21 21 21 21 20 20 21 22 22 21 20 19 19 18 17 16 15 14 13 13 12 12 12 12 12 12 11 11 11 10 10 9 9 8 8 7 7 7 7 6 6 6 6 6 6 6 6 6 6 6 6 7
9 9 10 10 9 9 9 9 9 8 9 9 11 13 16 18 20 21 21 21 19 17 16 15 11 6 4 4 6 11 15 16 17 18 18 18 18 19 20 19 20 21 21 20 18 17 17 15 15 14 13 13 12 12 12 12 12 12 12 11 11 11 11 10 10 9 9 8 8 7 7 7 7 7 6 6 6 6 6 6 6 6 6 7 7 8
10 11 11 10 10 10 10 9 7 7 7 7 8 10 11 14 17 19 19 19 18 16 14 12 12 12 10 7 9 14 17 17 17 16 15 13 14 16 18 17 18 19 20 18 17 16 15 15 14 13 13 13 13 12 12 12 12 12 12 12 12 12 11 11 10 10 9 8 8 8 8 7 7 7 7 6 6 6 7 6 6 7 7 8 8 9
11 12 11 11 11 11 10 9 6 5 5 6 8 10 11 12 14 15 16 17 18 17 16 13 11 11 12 12 14 16 18 18 17 16 14 12 12 14 16 15 16 18 19 18 17 16 16 15 15 15 14 14 14 13 13 13 13 13 13 13 12 12 12 11 10 10 9 8 8 8 8 7 7 7 7 7 7 7 7 7 7 7 8 9 9 10
15 14 12 12 12 12 10 9 7 5 5 7 9 10 11 12 13 15 17 19 19 18 17 14 11 11 13 14 15 16 17 17 17 16 14 12 12 13 14 15 16 18 21 20 19 18 18 17 17 16 16 16 15 15 15 14 14 14 13 13 12 12 11 11 10 10 9 9 8 8 7 7 7 7 7 7 7 7 7 7 8 9 9 10 11 12
19 17 16 16 15 14 11 10 9 7 6 8 9 10 10 11 13 15 18 20 20 18 16 14 14 15 16 16 16 16 17 16 17 17 13 10 10 12 14 14 16 19 22 23 23 21 20 19 18 17 17 16 16 15 15 15 15 14 13 13 12 11 11 11 10 10 9 9 8 8 7 6 6 6 6 6 7 7 8 9 9 10 11 12 13 14
21 19 19 18 17 15 14 13 12 11 10 10 10 10 10 11 12 15 17 20 21 21 20 19 19 18 18 17 16 16 15 15 17 17 14 9 8 11 16 16 17 18 20 22 23 23 22 21 20 19 17 16 16 15 15 15 14 14 13 12 11 11 11 10 10 10 9 8 7 7 6 6 5 5 6 6 7 8 9 10 11 12 12 13 14 16
22 20 20 19 17 16 15 13 12 12 12 12 12 11 11 12 13 15 18 20 23 24 23 22 21 20 18 17 15 14 14 14 16 16 13 9 9 13 18 19 18 18 19 21 22 23 23 23 22 20 18 16 16 15 15 14 13 13 12 11 11 11 11 10 10 9 8 7 7 6 6 5 5 5 6 7 8 9 10 11 12 13 14 15 16 17
24 23 22 21 19 18 16 14 13 11 11 12 12 12 12 13 15 17 20 22 24 25 25 24 21 17 16 15 14 13 12 13 14 14 12 9 11 14 18 20 18 17 17 20 22 23 24 23 22 21 19 17 15 14 14 14 13 12 11 11 10 10 10 9 9 8 7 7 6 5 5 5 5 5 6 7 8 10 11 11 12 13 14 16 17 18
24 23 23 22 20 19 18 16 14 12 11 11 11 11 11 12 16 19 22 23 24 25 25 21 16 13 13 13 12 11 10 11 12 12 13 12 13 14 17 19 18 17 17 19 21 22 23 21 19 18 18 17 15 13 12 12 11 10 10 9 9 8 8 8 7 7 6 5 5 5 5 5 5 6 7 8 9 10 11 12 12 13 15 17 18 19
21 20 19 19 18 18 17 17 16 14 12 11 10 9 9 10 14 16 17 18 20 22 20 14 9 8 10 10 10 9 10 9 9 11 14 17 16 15 16 17 18 17 17 17 18 19 19 17 15 14 15 15 13 12 11 10 9 9 8 7 7 6 6 6 6 5 5 5 4 4 5 5 6 7 8 9 10 10 11 12 13 14 15 17 18 19
17 16 16 15 15 15 15 15 15 14 13 11 10 9 8 9 12 13 12 13 16 18 17 12 8 5 5 5 7 9 10 9 9 11 14 17 17 16 18 19 18 18 17 16 16 15 15 14 13 13 12 11 10 9 9 10 9 9 8 7 6 5 5 4 4 4 4 4 4 4 5 6 6 7 8 9 10 11 11 12 13 14 16 17 18 19
15 15 15 15 15 14 14 15 15 15 14 13 12 11 10 11 12 13 11 12 14 15 15 13 11 9 7 7 9 10 10 9 9 10 12 15 15 16 20 21 20 20 18 15 13 11 11 10 10 9 9 8 7 6 6 7 8 8 8 6 5 4 4 3 3 4 4 4 5 5 5 6 7 7 8 9 10 11 11 11 12 14 16 17 18 19
16 16 16 17 16 16 16 16 16 16 15 15 14 14 13 13 14 13 12 12 13 14 15 14 14 13 11 9 7 6 7 7 7 9 11 11 12 15 19 20 20 20 19 14 9 6 6 7 8 7 6 6 4 3 3 4 5 5 5 4 4 3 3 4 4 4 4 5 5 5 6 6 7 8 9 9 10 11 11 11 12 13 15 16 17 18
19 19 20 19 19 18 18 18 18 17 17 16 16 16 16 15 14 13 12 11 12 14 15 15 14 13 11 6 2 1 2 5 6 8 9 8 10 14 18 18 18 18 17 13 8 4 3 5 7 7 7 7 5 4 3 3 3 3 2 2 3 3 4 4 4 5 5 5 5 6 6 7 7 8 9 9 10 10 10 10 11 12 14 15 16 16
21 21 21 21 20 20 20 19 18 18 18 18 18 18 17 17 16 14 13 12 12 13 14 15 13 12 10 7 4 2 1 4 6 7 7 8 11 15 16 16 15 15 15 12 10 7 4 4 6 7 8 8 7 6 5 4 3 2 2 2 3 3 4 4 5 5 5 5 5 6 6 6 7 8 8 9 9 10 10 10 10 11 12 13 14 14
22 21 21 21 20 20 20 19 19 18 19 19 18 18 17 17 16 15 14 13 12 12 13 13 13 12 11 11 10 7 6 7 8 8 8 9 9 11 13 14 14 13 12 10 9 7 5 5 6 7 8 8 7 7 5 5 4 3 2 2 2 3 4 4 5 5 5 5 5 6 6 6 7 7 8 8 9 9 9 9 9 10 10 11 12 13
22 21 21 21 21 21 20 19 19 19 19 19 19 18 17 16 15 15 14 14 13 12 12 12 12 12 13 13 12 11 10 9 9 8 8 8 8 9 11 12 12 12 10 8 6 5 5 6 6 7 8 8 7 6 5 5 4 3 3 2 2 3 3 3 4 4 5 5 5 5 6 6 7 7 8 8 9 9 9 9 9 9 9 9 10 11
21 21 21 21 21 21 21 21 20 20 20 20 19 18 17 16 15 14 14 13 13 12 12 11 11 11 12 14 13 12 11 10 9 8 7 7 9 10 11 10 10 10 9 8 6 5 4 6 7 7 7 7 7 6 5 4 3 2 2 2 3 3 3 3 3 3 4 5 5 5 6 6 7 8 8 9 9 9 9 9 9 8 8 7 8 9
21 21 21 21 21 21 21 21 21 21 20 20 19 18 17 16 16 15 14 13 12 12 12 12 12 11 12 13 14 14 12 10 8 7 6 6 8 9 8 7 7 8 9 8 7 6 5 5 5 5 5 5 5 5 4 3 2 1 2 3 3 3 2 2 2 3 4 5 5 6 6 7 8 8 9 9 9 10 10 9 9 8 7 7 6 6
20 20 20 20 20 19 19 20 20 20 20 19 18 18 17 17 16 16 15 14 13 13 13 13 13 13 13 12 13 13 12 9 7 6 6 5 5 5 6 7 6 6 7 7 8 7 6 5 4 4 3 3 4 3 3 2 2 4 4 4 3 2 1 1 1 3 4 5 6 6 7 8 9 9 9 10 10 10 9 9 9 8 8 7 7 6
18 18 18 19 18 18 18 18 18 18 18 17 17 16 16 16 16 16 15 15 14 14 14 14 14 14 13 13 12 11 10 9 7 6 5 5 3 4 5 7 7 5 5 5 6 6 6 6 5 5 4 4 3 3 2 2 4 5 5 4 2 1 1 0 1 2 4 5 6 7 8 9 9 10 10 10 10 10 9 9 8 8 8 8 8 8
16 16 16 17 17 17 17 16 16 15 14 14 14 14 14 14 14 15 15 15 15 15 15 16 16 15 15 14 13 11 10 9 8 7 6 5 4 3 4 6 6 5 5 4 4 5 6 6 5 5 5 5 4 2 2 2 3 4 4 3 1 1 1 1 2 3 5 6 7 8 9 9 10 10 10 10 10 9 9 9 8 9 9 9 10 10
15 15 15 15 15 15 15 14 13 12 11 11 11 11 11 12 13 13 14 14 15 15 15 15 15 16 15 15 14 12 11 10 9 8 7 6 5 4 4 4 5 5 4 4 4 4 5 5 5 5 4 4 3 2 1 1 2 3 3 2 1 0 1 2 3 5 6 7 8 9 10 10 10 11 10 10 10 9 9 9 9 10 10 11 12 13
14 15 15 14 14 14 13 12 10 9 9 9 9 10 11 11 11 12 12 13 13 13 13 14 14 15 15 15 14 13 12 11 10 9 8 7 6 5 4 4 4 4 3 4 4 4 4 4 5 4 4 3 3 3 2 1 0 1 1 1 2 3 3 4 5 6 6 7 8 9 10 10 11 10 10 9 9 9 9 9 10 10 11 12 13 14
14 14 14 13 13 12 11 10 9 8 8 9 10 10 10 10 10 11 11 12 12 12 11 12 13 14 14 14 14 13 12 11 10 9 9 8 7 6 5 4 4 3 2 3 3 3 3 3 4 4 4 3 3 3 3 3 2 2 2 3 4 5 5 5 5 5 7 8 8 8 9 9 10 10 10 9 9 9 10 10 10 11 12 13 13 14
14 14 13 13 12 11 10 10 10 10 10 11 12 11 11 10 10 10 11 11 12 11 11 10 11 12 13 13 13 12 11 10 9 9 8 8 7 6 5 4 3 2 1 2 3 3 3 3 3 3 3 3 3 3 3 3 4 4 4 4 5 5 5 5 6 7 7 7 7 7 7 8 9 9 10 10 11 11 11 11 12 12 13 14 15 15
13 12 12 12 11 10 10 11 12 12 12 14 14 12 11 10 10 10 11 11 11 10 10 10 10 11 12 12 11 11 10 9 9 8 8 8 7 6 6 5 4 2 1 1 2 3 3 3 3 2 3 3 4 3 4 3 4 4 4 5 5 6 6 7 7 6 5 4 4 5 6 7 8 9 11 11 12 13 13 13 14 14 15 15 16 17
11 11 11 11 11 12 13 13 13 13 14 14 14 13 12 11 10 11 11 11 10 10 10 10 10 11 12 11 10 9 8 8 7 7 7 7 6 6 5 5 4 3 2 1 1 2 2 2 2 3 4 4 4 4 4 4 4 4 4 4 4 5 5 5 4 3 3 3 4 5 6 7 9 11 12 13 14 15 15 16 16 16 17 17 17 18
10 10 10 10 11 12 12 12 12 12 13 14 14 13 12 11 11 11 11 10 10 10 9 9 10 11 12 11 10 9 9 8 7 7 7 6 5 5 5 4 4 3 3 1 0 1 2 3 3 3 4 4 5 5 5 4 4 4 4 3 3 3 2 2 2 2 2 3 5 6 7 9 10 12 14 16 16 17 17 17 18 18 18 18 18 18
10 10 10 10 10 10 10 10 10 11 12 13 13 13 12 11 11 11 11 10 10 10 10 10 11 12 12 11 10 10 10 10 9 8 7 6 6 5 5 4 4 3 3 2 1 1 2 3 4 4 4 4 4 4 4 4 4 3 3 2 2 2 1 2 2 2 3 4 6 8 9 11 13 14 16 17 18 19 19 18 18 18 18 18 18 18
9 9 9 8 8 9 9 9 9 10 11 11 11 11 11 11 11 11 11 10 10 10 10 10 11 11 11 10 10 10 9 9 9 9 8 7 6 6 5 5 4 3 2 1 1 1 2 3 4 4 4 5 4 4 3 2 2 2 2 3 3 2 2 2 2 3 4 6 8 9 11 13 14 16 17 18 19 19 19 19 19 18 18 18 17 17
8 8 8 7 7 8 8 8 8 9 9 10 10 10 10 10 10 11 10 10 10 10 10 10 10 10 10 9 8 8 8 8 8 8 8 8 8 8 7 7 5 4 4 3 2 2 2 2 2 2 2 2 2 2 1 1 2 2 3 3 4 3 3 3 4 5 6 8 9 10 12 13 15 16 17 17 18 18 19 19 19 18 17 17 17 16
8 8 7 7 7 8 8 8 8 8 9 9 9 9 9 9 9 9 9 9 10 10 9 9 9 9 9 8 7 7 7 7 7 7 7 7 8 8 9 9 9 9 9 8 7 4 2 2 3 3 3 3 2 2 2 3 3 3 3 4 4 4 5 5 6 8 9 10 11 12 13 15 15 16 16 16 16 17 18 18 18 17 17 17 17 17
8 7 7 7 8 8 8 8 8 8 8 8 8 8 8 8 8 8 8 9 9 9 9 8 8 8 9 8 7 7 6 6 7 7 7 7 7 8 9 9 10 11 12 12 12 11 8 5 4 5 6 5 4 4 4 4 4 3 4 4 5 6 6 7 8 10 11 12 13 15 15 16 16 16 15 15 14 15 16 16 17 18 18 18 18 18
Wind_Direction
173 181 186 191 193 194 192 189 186 184 181 180 179 178 176 175 175 176 177 179 180 182 182 182 182 182 183 183 183 182 181 182 182 183 183 182 182 181 181 181 181 180 180 179 178 176 175 174 174 173 173 171 170 169 169 169 168 168 167 167 166 165 163 160 158 156 154 152 149 145 141 136 129 123 115 108 100 92 86 77 68 58 46 35 25 20
159 168 175 181 185 188 190 189 189 188 185 182 179 178 176 176 176 177 178 181 183 185 185 185 183 182 181 181 181 181 181 181 181 181 180 179 178 177 177 177 177 176 175 175 174 174 173 173 173 173 172 171 170 169 169 169 168 167 167 167 167 166 164 162 161 158 156 153 150 146 141 135 127 119 108 96 86 76 68 58 47 35 24 16 11 8
149 154 163 169 174 180 183 186 188 189 189 186 182 180 178 178 178 178 180 181 183 185 187 187 185 183 181 180 180 181 181 182 181 180 177 175 174 173 173 173 173 172 172 171 171 171 171 172 172 172 172 171 171 170 170 169 168 168 168 168 168 168 167 166 164 162 160 158 155 150 145 138 128 115 98 78 65 55 46 36 24 13 3 358 357 357
155 151 156 161 166 172 176 179 182 186 189 189 187 184 182 180 180 181 182 183 185 186 187 187 186 184 181 180 181 182 183 183 181 178 175 173 172 171 171 171 170 170 169 169 169 170 170 171 171 171 172 172 172 171 170 169 168 169 170 170 171 171 171 170 169 168 166 164 161 156 150 142 130 110 83 58 47 38 29 20 7 358 351 348 346 346
165 160 159 159 162 167 170 172 175 179 185 190 190 188 186 184 183 183 184 185 186 187 187 187 186 185 184 183 183 184 185 184 182 178 175 173 172 172 171 171 171 170 170 170 171 171 172 172 172 173 173 174 174 173 172 171 170 171 172 173 174 175 176 176 175 175 172 169 164 159 152 144 129 100 61 40 32 27 23 13 0 351 345 343 342 341
168 166 163 161 161 164 168 171 173 176 182 187 190 190 189 187 185 184 185 186 187 188 188 188 188 187 186 186 187 187 188 187 184 180 177 175 175 174 174 174 174 174 174 174 175 175 175 176 176 177 177 178 178 177 176 175 175 175 177 178 180 181 182 182 182 180 177 172 166 160 152 143 125 83 38 24 21 21 18 8 355 346 342 341 341 339
175 172 168 164 162 164 170 176 178 178 181 184 187 188 189 187 186 186 186 187 187 188 189 189 189 189 188 188 188 188 188 188 185 182 180 178 178 178 178 177 177 178 178 179 179 179 180 180 181 182 182 183 183 183 182 180 180 181 183 184 186 187 188 189 187 185 180 174 167 161 154 148 139 72 9 8 10 11 9 357 343 337 338 339 338 336
182 174 170 164 160 163 170 177 181 182 183 182 181 181 184 186 186 187 187 187 188 188 189 189 189 189 189 188 187 187 187 186 185 183 182 181 181 181 181 181 181 181 182 182 183 183 184 184 185 186 187 188 188 188 187 186 186 186 188 188 190 191 193 192 191 187 182 176 170 166 165 167 182 235 317 340 348 352 350 336 327 326 330 333 332 331
186 171 168 165 159 156 163 173 180 183 184 183 180 178 178 181 184 186 187 188 189 190 191 190 189 188 187 186 185 185 185 186 185 184 183 183 183 183 183 183 182 182 182 183 183 184 184 186 187 188 190 191 191 192 191 189 187 187 188 190 192 194 196 195 193 190 186 182 180 180 185 198 218 249 285 311 323 324 318 313 314 317 321 324 324 324
193 178 165 164 164 161 156 165 179 184 184 185 185 183 181 179 179 180 182 186 190 193 195 193 190 187 185 184 184 184 184 185 186 186 185 184 184 185 185 184 183 182 181 181 182 183 183 185 186 188 190 192 194 194 193 190 187 187 188 191 194 197 199 199 198 195 194 193 196 202 211 225 242 262 282 299 308 309 304 303 306 310 313 314 315 317
191 185 172 163 167 169 164 164 179 185 185 185 185 186 186 184 181 178 175 179 186 191 193 192 189 185 183 183 184 183 183 184 186 188 187 186 185 185 185 184 183 181 181 181 181 182 182 184 186 188 191 193 195 195 194 191 189 189 191 194 198 201 203 204 203 202 203 205 211 219 230 243 257 272 286 296 299 298 295 296 299 301 302 303 305 309
179 180 181 175 175 175 171 166 175 183 185 182 180 180 183 186 186 185 181 181 184 187 185 183 182 181 181 182 183 183 183 184 185 186 188 187 187 186 186 185 184 183 183 183 183 183 184 185 187 189 192 195 196 197 196 194 193 193 195 198 201 204 206 207 207 208 210 214 220 229 238 249 261 273 283 290 290 288 287 288 289 290 291 291 295 303
175 176 179 182 184 183 177 162 161 169 176 177 176 174 178 186 189 190 188 187 188 189 183 174 171 175 179 182 182 183 185 185 185 187 189 190 190 189 188 188 187 185 185 185 185 186 187 188 191 193 196 198 199 200 199 199 198 198 199 201 204 206 207 208 209 211 215 220 226 233 242 250 257 266 275 281 282 282 281 280 280 280 280 281 285 292
166 165 165 166 170 173 171 164 159 161 172 179 180 180 182 187 189 190 187 184 185 186 184 172 164 166 175 178 180 183 185 186 186 186 189 191 191 190 190 191 190 188 188 188 188 188 190 192 194 197 200 202 203 204 203 202 202 201 202 203 205 206 207 209 211 214 218 223 229 234 239 244 249 256 266 273 275 274 273 273 273 274 275 277 283 289
160 157 150 143 142 148 157 162 163 166 175 181 182 182 183 185 186 184 179 172 172 175 174 167 160 162 171 176 178 180 184 185 185 184 184 187 189 190 191 192 191 190 189 190 191 192 194 196 198 200 202 205 206 205 204 202 201 202 203 204 205 206 208 210 212 216 221 225 228 231 233 237 242 250 259 264 266 267 268 268 269 273 276 280 285 290
163 159 150 140 133 136 147 156 160 164 173 178 180 179 179 178 179 178 172 165 163 163 161 153 146 150 171 185 183 180 180 180 180 179 180 183 187 191 191 192 192 191 191 192 193 194 197 199 201 202 203 204 204 203 202 200 200 201 203 204 205 206 208 210 212 215 217 219 222 224 227 232 237 242 250 254 258 261 264 266 269 273 276 281 286 291
157 154 145 136 126 125 135 144 150 157 165 173 177 178 177 176 175 174 171 167 165 163 160 156 145 127 163 189 192 187 181 178 178 179 179 180 184 189 190 190 190 191 191 192 193 194 197 198 198 198 199 199 198 198 197 197 198 200 201 203 203 203 203 205 207 209 209 211 213 216 223 227 231 236 242 247 252 256 260 264 267 271 275 279 284 288
122 125 128 125 121 120 124 128 136 145 154 164 173 177 178 177 175 174 172 169 169 170 170 165 161 159 164 165 184 188 182 177 175 175 175 174 177 182 186 188 188 189 189 189 189 190 191 191 190 190 190 190 190 190 191 192 194 195 196 196 195 195 196 198 199 200 200 202 206 211 216 220 225 230 236 242 247 251 255 259 263 268 273 278 283 286
89 97 104 111 115 115 112 110 115 128 140 152 163 171 175 177 178 177 176 175 177 178 175 165 160 159 157 152 169 178 179 175 169 165 163 160 165 172 176 178 181 182 182 180 180 180 180 179 178 178 179 180 181 182 183 185 186 187 187 187 187 188 189 190 190 191 193 196 202 207 211 215 219 225 230 237 242 246 251 256 261 267 273 279 283 287
74 78 88 102 107 102 92 88 96 116 137 156 167 169 168 174 179 182 184 185 188 188 183 173 158 150 153 154 160 167 172 171 162 151 143 135 141 152 162 162 163 166 166 165 164 164 163 163 163 165 167 170 172 173 174 175 176 178 180 181 182 182 182 183 184 186 188 191 196 202 206 210 215 222 228 235 241 247 253 259 265 272 278 283 286 290
70 69 79 95 96 87 77 76 84 107 141 162 167 166 163 167 173 180 187 191 193 192 188 179 160 147 152 151 151 157 164 164 157 146 134 123 124 136 146 147 147 146 146 146 147 149 150 151 153 155 156 159 162 163 166 168 171 174 175 176 176 176 176 177 178 181 185 189 194 198 203 208 215 222 231 239 247 254 261 268 275 281 286 289 291 293
76 73 78 85 86 83 78 78 82 96 122 143 146 145 149 155 159 167 177 183 184 180 170 156 149 148 148 144 144 150 157 163 159 149 134 115 115 131 142 141 136 132 130 131 136 141 142 143 143 144 146 149 152 155 159 163 165 168 170 170 170 170 171 173 175 178 183 187 191 196 202 210 218 228 240 250 259 267 275 281 286 290 293 294 295 296
80 78 78 79 80 80 81 81 84 91 104 116 121 127 138 149 153 157 164 169 169 164 157 151 147 144 141 137 137 141 148 156 159 153 134 115 113 132 145 145 136 125 120 123 128 133 135 135 133 132 135 139 144 149 152 157 159 162 164 165 166 168 169 172 175 179 183 187 192 199 206 215 226 239 252 264 273 281 287 292 295 297 298 298 297 298
77 76 74 73 73 74 75 76 79 83 89 95 104 115 126 139 148 155 162 164 163 159 152 146 138 131 128 126 127 132 139 146 150 146 130 112 116 133 142 144 137 124 118 120 124 127 129 129 129 129 129 132 139 145 148 152 154 156 159 162 166 169 172 175 178 182 187 191 198 205 214 226 240 254 267 277 286 292 296 299 301 301 300 299 298 298
72 71 71 70 70 69 69 70 71 75 79 83 87 94 106 119 132 143 150 152 152 150 146 138 127 116 115 118 120 124 134 140 144 141 128 116 119 130 137 140 135 124 116 119 123 126 125 125 126 128 129 129 133 141 147 151 152 155 158 163 168 172 175 179 183 188 193 199 206 216 227 242 257 270 281 288 294 298 301 303 303 302 301 299 299 299
73 73 72 71 69 68 67 66 65 69 75 80 82 86 98 113 124 129 131 134 137 139 137 126 114 107 111 110 107 110 124 135 143 144 138 131 129 132 136 140 137 128 118 118 120 121 120 119 120 124 129 130 132 138 146 151 153 154 158 162 168 174 179 184 189 195 202 210 220 232 245 260 273 282 290 295 298 300 302 304 304 302 301 300 300 300
72 73 72 71 70 69 67 64 63 65 71 78 83 89 100 118 120 114 109 118 129 133 129 121 115 112 107 98 91 96 114 126 135 141 145 142 139 139 143 145 143 134 123 116 114 116 116 112 110 114 124 129 133 138 143 148 145 143 151 159 167 176 185 192 198 206 214 225 237 250 262 274 284 290 295 297 299 300 303 304 304 302 300 300 300 300
68 69 69 70 71 72 70 67 65 65 69 76 83 91 105 120 113 102 99 117 128 129 122 118 117 114 106 95 91 96 107 112 119 130 141 142 140 143 151 155 153 146 132 118 113 113 113 108 105 107 111 118 127 136 142 147 147 146 150 160 169 180 193 205 215 225 234 245 257 268 276 284 290 293 296 298 300 302 304 305 304 301 300 300 300 299
67 68 70 72 74 76 75 74 71 69 69 73 80 89 100 110 107 104 109 123 127 123 117 115 114 113 111 105 99 94 90 94 106 124 138 137 137 144 155 159 160 156 146 133 121 113 108 108 110 109 106 109 115 128 142 151 155 157 160 166 176 189 206 225 240 252 261 268 276 283 288 292 295 296 297 299 301 303 304 304 302 300 299 299 298 298
71 72 73 74 76 76 76 76 74 73 73 74 78 83 90 97 102 106 113 121 122 119 115 115 116 117 117 111 99 80 65 68 93 122 134 130 132 143 153 158 161 161 157 150 140 119 110 123 130 132 129 126 127 135 151 161 165 167 172 183 199 218 234 249 260 269 277 283 288 292 296 297 298 298 299 301 302 303 302 303 301 300 298 298 298 298
74 74 74 74 74 74 74 73 73 73 73 74 76 78 81 86 91 98 105 111 115 117 118 118 120 122 122 120 110 64 39 49 85 119 132 131 135 144 151 157 162 164 164 163 156 136 131 139 141 145 151 152 156 165 172 176 177 181 194 224 251 259 261 264 270 277 285 290 294 297 298 299 299 300 300 301 301 301 300 301 301 299 298 298 299 300
76 74 73 72 72 71 70 69 69 69 69 70 72 73 75 77 79 84 90 97 106 114 119 120 121 120 115 102 95 96 87 72 94 116 128 129 136 144 151 155 161 165 167 167 157 143 133 144 143 143 147 149 154 162 171 178 185 193 214 250 272 278 275 276 280 286 290 294 297 298 299 299 300 301 301 300 300 298 297 298 300 299 299 301 302 304
76 75 73 72 70 69 68 67 66 65 65 65 66 67 69 71 72 74 78 84 94 104 112 116 116 112 106 98 94 93 92 93 102 114 125 129 133 140 149 153 157 161 165 163 152 139 127 135 141 143 143 144 147 151 159 169 179 188 201 233 265 277 280 284 288 293 296 298 299 300 299 300 300 301 301 300 298 296 295 294 296 298 300 303 305 307
76 75 73 72 71 70 68 67 66 65 65 64 64 64 65 66 68 70 72 75 81 89 98 105 107 107 106 101 97 94 92 95 103 113 122 131 134 137 141 146 152 157 160 157 146 128 113 117 126 134 138 137 139 145 149 156 167 180 195 227 262 281 284 287 292 296 299 300 300 297 298 300 302 302 302 301 298 295 293 292 292 295 298 305 308 310
72 72 72 72 72 71 70 69 68 68 66 65 65 64 64 65 67 68 71 73 76 80 85 91 96 102 107 107 102 96 90 91 97 105 112 126 132 133 134 138 148 156 156 154 144 127 110 115 124 131 134 129 129 136 144 150 158 176 212 255 279 289 289 290 291 294 296 296 293 293 297 301 305 306 305 303 300 296 293 291 290 290 293 301 308 312
67 66 67 68 69 69 70 70 71 70 69 69 69 68 68 69 69 71 72 75 79 82 84 86 88 93 98 102 101 96 90 89 90 95 102 118 132 135 132 134 148 158 156 151 145 136 123 122 132 143 143 136 132 134 143 161 187 242 286 299 306 304 298 289 284 286 289 291 292 296 302 307 310 311 308 304 300 296 292 290 287 285 285 288 295 305
64 62 62 65 67 68 69 71 72 72 72 72 73 74 74 74 75 75 75 77 81 86 90 92 92 92 93 96 94 92 90 86 82 82 90 105 127 141 139 138 148 162 166 159 155 152 142 133 138 152 160 155 146 141 147 205 267 294 311 325 337 342 323 288 271 277 282 288 294 301 307 311 313 311 307 301 296 291 287 285 283 281 279 279 282 288
62 60 60 63 66 69 69 71 73 75 76 76 78 79 80 81 81 80 80 80 82 85 89 92 94 94 94 94 93 91 89 84 78 74 77 86 103 131 141 141 148 162 175 176 177 175 166 151 146 153 162 167 168 172 197 279 307 321 331 342 0 30 40 291 262 269 277 284 291 299 306 310 310 308 304 299 293 288 284 281 280 281 281 280 280 282
60 59 59 61 65 68 70 71 74 78 81 83 84 86 88 89 90 89 89 88 88 88 90 92 94 95 96 95 95 95 93 88 83 79 78 79 85 101 128 139 145 152 164 177 187 194 192 181 170 164 163 161 165 181 235 294 321 336 344 355 21 95 132 235 266 272 277 284 292 301 307 308 308 305 302 299 296 294 293 293 294 296 296 294 291 288
61 61 62 64 69 73 75 77 80 84 88 90 92 94 95 95 96 97 97 97 97 97 97 98 99 99 98 97 97 96 94 92 89 86 85 85 86 93 110 127 136 144 155 166 176 187 195 193 188 185 182 171 167 175 202 308 341 350 354 10 18 249 252 268 274 276 278 286 297 306 310 308 306 303 300 299 300 301 303 305 307 308 310 311 311 309
63 64 67 72 76 78 79 83 87 91 95 99 100 98 97 98 99 101 102 103 104 104 105 106 105 103 101 98 96 94 93 91 89 88 87 85 87 92 101 112 122 136 157 167 170 174 183 181 181 184 192 196 201 205 213 226 305 328 310 311 299 290 283 277 273 275 282 293 301 306 307 304 301 299 297 297 299 302 304 306 309 311 314 316 317 319
65 68 72 77 80 82 87 90 93 95 99 101 98 93 92 95 99 104 106 107 107 108 109 110 109 105 100 96 95 94 91 89 87 86 84 83 83 87 94 101 110 124 152 168 168 168 170 172 171 173 184 199 209 214 220 229 237 245 262 283 293 293 286 276 273 282 295 303 306 304 300 297 296 296 297 298 299 299 301 303 306 310 313 315 316 317
73 75 78 80 83 86 90 91 91 91 92 91 88 87 88 92 98 104 108 108 108 109 112 114 114 109 101 94 91 91 90 88 86 84 82 80 79 81 86 91 95 105 135 154 153 157 175 186 182 178 190 208 222 231 236 246 252 254 265 277 291 297 293 289 294 301 305 307 306 300 295 294 294 296 296 297 297 298 299 301 303 305 309 311 314 315
78 80 82 82 84 85 85 83 82 82 83 82 81 82 86 91 96 100 102 104 108 112 116 121 123 117 104 93 88 87 88 88 86 83 81 79 76 75 76 77 78 83 112 130 135 147 169 186 197 206 215 226 237 248 256 262 267 271 275 282 288 291 292 299 308 314 312 309 304 299 296 295 295 295 295 296 297 299 301 303 304 306 307 309 312 314
78 79 79 79 79 78 76 77 77 78 79 79 78 78 81 85 90 93 94 97 101 109 118 126 125 110 90 84 82 83 86 86 85 82 80 78 76 74 72 69 66 64 70 94 141 167 183 189 204 223 233 238 247 256 265 271 275 280 284 289 290 290 295 308 321 329 328 322 316 312 307 303 301 301 303 304 306 307 309 310 311 312 312 313 314 315
72 73 73 74 74 75 76 76 77 77 76 75 74 74 76 79 83 86 89 91 93 99 108 119 112 97 82 76 73 72 72 73 74 74 73 72 73 75 72 67 61 55 49 48 72 228 230 234 236 239 244 248 253 258 264 272 279 286 293 302 302 299 308 343 8 6 344 327 321 320 316 309 307 310 314 315 315 314 313 314 315 316 316 316 317 317
66 67 69 71 74 76 76 75 74 73 71 69 69 69 71 72 75 78 82 86 90 94 97 100 97 90 82 76 70 65 62 59 58 58 61 62 63 65 69 67 61 51 40 30 357 277 260 255 252 253 255 259 263 267 270 275 283 296 314 331 339 338 353 30 33 10 334 322 321 321 320 318 319 321 322 321 319 318 316 316 316 316 317 317 318 317
65 66 68 70 73 74 74 72 69 68 66 65 64 64 64 65 66 67 71 78 85 90 92 92 90 87 82 78 73 69 64 61 56 53 52 53 53 53 55 54 51 45 32 7 326 294 279 273 268 265 263 262 263 271 283 292 310 329 352 13 19 24 34 33 12 342 324 319 319 321 323 326 330 331 329 326 322 320 318 317 316 316 316 317 317 317
68 68 69 70 71 70 69 67 65 63 62 60 59 58 59 60 61 63 65 71 77 82 87 88 87 84 79 75 74 74 71 67 63 56 50 47 46 45 43 38 33 26 18 4 340 297 268 255 254 255 256 264 268 280 316 358 20 30 35 37 36 36 33 15 350 333 323 320 319 320 322 326 329 331 331 329 324 320 318 318 317 316 316 316 317 317
73 72 72 71 70 68 65 63 61 59 57 55 53 53 55 58 61 64 67 70 73 75 78 81 81 78 73 69 69 69 68 66 62 55 48 45 42 40 37 31 25 20 18 16 17 26 72 129 140 129 108 88 65 38 31 30 32 34 36 36 30 21 10 355 341 331 326 323 321 321 322 325 328 331 332 330 326 321 318 318 317 316 315 316 317 317
76 76 75 73 70 68 65 62 59 57 56 54 52 52 55 59 63 66 69 71 72 74 75 77 75 72 67 64 62 63 62 60 54 48 43 42 40 39 37 33 28 24 22 22 24 30 42 59 87 103 100 93 75 51 36 29 20 16 18 18 11 2 353 344 336 329 326 324 324 324 326 328 331 334 335 333 327 322 318 316 315 315 315 317 319 319
Height
722 723 724 726 727 728 729 731 731 732 733 735 736 738 739 741 742 744 745 746 747 748 749 750 751 753 754 755 756 756 757 757 758 759 760 761 762 763 765 766 767 769 770 771 773 774 775 776 778 779 780 781 781 781 782 783 783 784 785 786 787 788 789 789 790 791 791 792 793 794 794 795 795 796 796 797 797 797 798 798 798 799 799 799 800 800
722 723 724 725 726 728 729 730 731 732 733 734 736 737 739 740 741 743 744 746 747 748 749 750 751 752 753 754 755 756 756 757 758 759 760 761 762 763 765 766 768 769 771 772 773 774 775 776 778 779 779 780 781 781 782 783 783 784 785 786 787 788 789 789 790 791 791 792 793 793 794 795 795 796 796 796 797 797 797 798 798 798 799 799 799 800
722 723 724 725 726 727 729 730 731 732 733 734 735 737 738 740 741 742 744 745 746 748 749 750 751 752 753 754 755 756 756 757 758 759 760 761 762 763 765 766 768 769 771 772 773 774 775 776 777 778 779 780 780 781 781 782 783 784 785 786 787 788 788 789 790 791 791 792 792 793 794 794 795 795 796 796 796 797 797 797 798 798 799 799 799 799
721 723 724 725 726 727 728 729 730 731 733 734 735 736 738 739 741 742 743 745 746 747 749 750 751 751 752 753 754 755 756 757 758 759 760 761 762 763 765 766 768 769 770 771 773 774 775 776 777 777 778 779 780 781 781 782 783 784 785 786 786 787 788 789 790 791 791 792 792 793 793 794 794 795 795 796 796 796 797 797 797 798 798 799 799 799
720 722 723 724 726 726 727 728 729 730 732 733 735 736 738 739 740 742 743 745 746 747 748 749 750 751 752 753 754 755 756 756 757 759 760 761 762 763 765 766 767 769 770 771 772 773 774 775 776 777 778 779 779 780 781 782 783 783 785 786 786 787 788 789 790 790 791 791 792 792 793 793 794 794 795 796 796 796 796 797 797 797 798 798 799 799
720 721 722 724 725 726 726 728 729 730 731 733 735 736 737 739 740 741 742 744 745 746 748 749 750 751 751 752 753 754 755 756 757 759 760 761 762 764 765 766 767 769 770 771 772 773 774 775 776 776 777 778 779 780 781 781 782 783 784 785 786 787 788 788 789 790 790 791 791 792 792 793 793 794 794 795 796 796 796 796 797 797 797 798 798 798
719 720 721 723 724 725 726 727 728 729 731 732 734 736 737 739 740 741 742 743 744 746 747 748 749 750 751 752 753 755 756 756 757 759 760 761 762 764 765 766 767 768 769 771 771 772 773 774 775 776 777 778 778 779 780 781 782 783 784 785 786 786 787 788 788 789 790 790 791 791 792 792 793 793 794 795 795 796 796 796 796 797 797 797 798 798
718 720 721 722 723 724 726 726 728 729 730 731 733 735 737 739 740 741 742 743 744 745 746 747 749 750 751 752 753 755 756 757 758 759 760 761 762 764 765 766 767 768 769 770 771 772 773 774 775 776 776 777 778 779 780 780 781 782 783 784 785 786 786 787 788 789 789 790 790 791 791 792 792 793 793 794 795 795 796 796 796 796 796 797 797 797
718 719 721 722 723 724 725 726 727 728 730 731 732 734 736 738 740 741 742 743 744 745 746 746 748 749 751 752 753 754 756 757 758 759 760 761 762 764 765 766 767 768 769 770 771 772 773 774 774 775 776 776 777 778 779 780 781 781 782 783 784 785 786 787 787 788 789 789 790 790 791 791 792 792 793 793 794 795 795 795 796 796 796 796 796 797
717 719 720 721 723 724 725 726 727 728 729 730 731 732 734 736 738 740 742 743 744 745 746 747 748 749 751 752 753 754 756 757 758 759 760 761 762 764 765 766 767 768 769 770 771 772 773 774 774 775 776 776 777 778 778 779 780 781 782 783 784 785 785 786 787 788 788 789 790 790 790 791 791 792 792 793 793 794 794 795 795 795 796 796 796 796
717 718 720 721 722 723 724 725 726 727 728 730 731 732 733 734 736 738 741 742 744 745 746 747 749 750 751 751 752 754 755 756 758 759 760 761 763 764 765 766 767 768 769 770 771 772 773 774 774 775 776 776 777 777 778 779 780 781 782 782 783 784 785 786 786 787 788 788 789 790 790 790 791 791 792 792 793 793 793 794 794 795 795 795 795 796
716 718 719 720 722 723 724 725 726 727 728 730 731 732 733 733 734 736 738 741 743 745 746 747 748 749 750 751 751 753 754 755 757 758 760 761 762 764 765 766 766 767 769 770 771 772 773 774 774 775 776 776 777 777 778 779 780 781 781 782 783 784 784 785 786 786 787 788 788 789 789 790 790 791 791 791 792 792 793 793 794 794 794 794 795 795
716 717 718 720 721 723 724 725 726 727 729 730 731 731 732 733 734 735 736 739 741 744 745 746 747 748 749 750 751 752 753 754 756 757 759 760 762 763 764 765 766 767 768 769 770 771 772 773 774 775 775 776 777 777 778 779 780 781 781 782 782 783 784 785 785 786 787 787 788 788 789 789 790 790 791 791 791 792 792 792 793 793 793 794 794 794
716 716 718 719 721 722 724 725 726 727 728 729 730 730 731 732 733 734 736 738 740 743 745 745 746 747 748 749 750 751 752 753 754 756 758 760 761 762 764 765 765 766 767 768 769 771 771 772 773 774 775 776 776 777 778 779 780 780 781 781 782 783 783 784 785 786 786 787 787 788 788 789 789 790 790 790 791 791 791 792 792 792 792 793 793 793
716 716 718 719 721 722 723 725 726 726 727 728 729 729 730 731 732 734 736 738 740 742 743 745 745 746 748 749 750 751 751 752 753 755 757 759 760 762 763 764 765 766 766 767 768 770 771 772 773 774 775 776 776 777 778 779 779 780 781 781 782 782 783 784 784 785 786 786 787 787 788 788 789 789 789 790 790 790 791 791 791 791 792 792 792 792
715 716 717 719 721 722 723 724 725 726 727 727 728 729 730 731 732 733 735 737 739 741 742 743 745 747 748 750 751 751 751 751 752 754 756 758 760 761 763 764 765 765 766 767 768 769 770 771 772 774 774 775 776 777 777 778 779 780 781 781 782 782 783 783 784 785 785 786 786 786 787 788 788 788 789 789 790 790 790 790 791 791 791 791 791 791
715 716 717 719 721 722 723 724 725 726 726 727 727 728 729 730 731 733 734 736 738 739 740 741 744 747 749 751 751 751 751 751 752 753 755 757 759 761 762 763 764 765 766 766 767 769 770 771 772 773 774 775 776 776 777 778 779 780 780 781 781 782 783 783 784 784 784 785 786 786 787 787 787 788 788 789 789 789 790 790 790 790 790 791 791 791
715 716 717 719 721 722 724 725 725 726 726 726 727 727 728 729 731 732 734 736 737 738 739 740 741 744 747 750 751 751 751 751 752 754 756 757 759 760 762 763 764 764 765 766 767 768 770 771 772 773 774 775 775 776 777 777 778 779 780 781 781 782 782 782 783 783 784 785 785 786 786 786 787 787 788 788 788 789 789 789 789 789 790 790 790 790
715 716 717 719 721 722 724 725 725 726 726 726 726 727 728 729 730 732 733 735 737 738 739 740 740 742 745 747 749 750 750 751 752 755 756 758 759 760 761 762 763 764 765 766 767 768 770 771 771 772 773 774 775 776 776 777 778 779 780 781 781 781 781 782 782 783 784 784 785 785 785 786 786 786 787 787 788 788 788 789 789 789 789 789 789 789
716 717 718 720 721 722 724 725 725 726 726 726 726 727 728 729 730 731 733 735 736 738 739 739 741 742 744 746 747 749 750 751 752 754 756 758 759 760 761 762 763 763 764 765 767 768 769 770 771 772 772 773 774 775 776 777 778 779 779 780 780 781 781 781 782 782 783 784 784 784 785 785 786 786 786 787 787 787 788 788 788 788 788 788 788 788
718 719 719 720 721 722 724 725 726 726 726 726 726 727 727 728 729 731 732 734 736 737 738 740 741 742 743 745 747 748 750 751 752 754 756 758 759 760 761 762 763 763 763 765 766 768 769 770 770 771 772 773 773 774 775 776 777 778 779 780 780 781 781 781 782 782 782 783 783 784 784 784 785 785 786 786 786 787 787 787 788 788 788 787 787 787
719 720 721 721 721 723 724 725 726 726 726 726 726 727 727 728 729 730 731 733 735 736 737 739 741 742 743 745 747 748 749 751 751 752 755 757 760 761 762 764 764 764 764 765 766 767 768 769 770 770 771 772 773 774 775 776 777 778 779 780 780 781 781 781 781 781 782 782 783 783 783 784 784 785 785 786 786 786 786 787 787 787 787 787 786 786
721 722 722 722 723 724 725 726 726 726 726 726 726 726 727 727 728 729 730 731 733 734 736 738 740 742 743 745 746 748 749 751 751 752 754 757 760 761 763 765 766 766 765 765 766 766 767 768 769 770 771 772 773 774 775 776 777 778 779 780 780 780 780 781 781 781 781 782 782 782 783 783 783 784 784 785 785 786 786 786 786 786 786 786 786 786
722 723 724 724 725 725 726 726 726 727 727 726 726 727 727 728 728 729 730 731 732 734 736 738 741 743 745 746 747 748 750 751 751 752 753 757 759 761 762 765 766 766 766 765 765 765 766 767 768 769 771 772 773 774 775 776 777 778 779 779 780 780 780 780 781 781 781 781 782 782 782 782 783 783 784 784 784 785 785 785 785 785 785 785 785 785
723 724 725 726 726 726 727 727 727 727 727 727 727 728 728 729 729 730 730 731 732 734 736 738 741 744 746 747 748 749 750 750 751 751 753 756 759 762 763 764 766 767 766 766 765 765 766 766 767 769 770 772 773 774 775 776 777 777 778 779 779 780 780 780 781 781 781 781 781 782 782 782 782 782 783 783 784 784 784 784 784 784 784 784 783 783
725 725 726 726 727 727 728 728 728 729 728 728 728 729 729 730 731 731 731 732 733 734 736 738 741 744 746 747 748 749 750 750 751 751 752 755 759 762 763 764 766 766 766 766 765 765 766 767 768 769 770 771 773 775 775 776 776 777 777 778 779 780 780 780 780 781 781 781 781 781 781 781 781 782 782 782 783 783 783 783 783 783 783 782 782 782
726 726 726 727 727 728 728 729 729 730 730 730 730 730 731 731 732 732 732 733 733 734 735 738 741 744 746 747 749 750 751 751 751 752 753 755 758 761 763 765 765 766 766 766 766 765 766 767 769 770 771 771 773 775 776 776 776 777 777 778 779 780 780 780 780 780 780 781 781 781 781 781 781 781 781 782 782 782 782 782 782 782 781 781 781 781
727 727 727 728 728 729 729 730 730 730 731 731 731 731 732 732 733 733 734 734 734 735 736 737 740 743 746 748 750 750 751 751 752 752 753 755 757 760 762 764 765 766 766 766 766 766 767 768 769 770 771 772 774 775 776 776 776 776 777 778 778 779 780 780 780 780 780 780 780 780 780 780 780 781 781 781 781 781 781 781 781 781 781 780 780 780
728 728 729 729 729 730 730 730 731 731 731 732 732 732 733 733 734 734 735 736 735 736 736 738 741 743 746 748 750 751 751 752 752 753 754 755 757 759 761 763 764 765 765 766 766 767 768 769 770 771 772 774 775 776 777 777 776 776 776 777 778 779 779 780 780 780 780 780 780 779 779 779 780 780 780 780 780 780 781 780 780 780 779 779 779 778
730 730 730 730 730 731 731 731 731 732 732 733 733 733 734 734 735 735 736 736 736 736 737 739 741 743 746 748 750 751 752 753 753 753 754 756 757 759 761 762 763 764 764 765 767 769 770 770 771 772 773 774 776 777 778 778 777 776 776 776 777 778 779 779 779 779 779 779 779 779 779 779 779 779 779 779 779 779 779 779 779 779 778 778 778 777
731 731 731 731 731 731 732 732 732 733 733 733 734 734 735 735 736 736 736 737 737 737 738 740 742 744 745 747 750 752 754 754 753 753 754 755 757 759 760 761 762 763 763 764 765 767 770 771 771 772 773 774 776 777 778 777 777 776 776 776 777 778 778 779 779 779 779 778 778 778 778 778 778 778 779 778 778 778 778 778 778 778 777 777 776 776
733 733 733 733 733 733 733 733 734 734 734 735 735 735 736 736 736 737 737 738 738 739 740 741 742 744 745 746 749 752 754 754 754 754 755 755 757 758 759 761 762 763 763 763 763 765 767 770 772 772 773 774 775 776 777 777 776 776 776 776 777 777 778 778 778 778 778 778 777 777 777 777 778 778 778 778 777 777 777 777 777 777 776 776 776 775
735 735 735 735 735 735 735 735 736 736 736 736 736 737 737 737 738 738 738 739 739 740 741 742 743 744 746 747 749 751 754 754 754 754 755 756 757 758 759 760 761 762 763 763 764 764 766 768 771 772 773 774 775 775 776 776 775 775 775 776 776 777 777 778 778 777 777 777 777 777 777 777 777 777 777 777 776 776 776 776 776 776 776 775 775 774
736 736 736 736 736 737 737 737 737 738 738 738 738 739 739 739 739 740 740 740 741 741 742 743 744 745 746 748 750 752 753 754 754 755 755 756 756 758 759 760 761 762 763 764 764 765 766 768 769 771 773 774 774 774 775 775 774 774 775 776 776 777 777 777 777 776 776 776 776 776 776 776 776 776 776 776 776 776 776 776 776 775 775 775 774 773
738 738 738 738 738 739 739 739 740 740 740 740 741 741 741 741 741 741 741 742 742 743 743 744 745 746 747 748 750 752 753 754 755 755 756 756 756 758 759 760 761 761 762 763 764 766 767 768 769 771 772 773 773 774 774 774 773 774 774 775 776 776 776 776 776 776 775 775 775 776 776 776 776 776 775 775 775 775 775 775 774 774 774 774 773 773
739 740 740 740 740 741 741 741 742 742 742 742 743 743 743 743 743 743 744 744 744 744 745 745 746 747 748 749 750 752 753 754 755 756 756 756 757 758 759 760 761 762 762 763 764 766 767 768 770 770 771 772 773 773 773 773 773 773 774 775 775 775 775 775 775 775 775 775 775 775 775 775 775 775 775 774 774 774 774 774 774 773 773 773 772 772
741 742 742 742 742 743 743 743 744 744 744 745 745 745 745 745 746 746 746 746 746 746 746 747 748 748 749 750 751 752 754 755 756 756 756 757 758 759 760 761 761 762 763 763 764 765 766 768 769 770 771 771 772 772 772 772 773 773 774 774 774 774 774 774 774 774 774 774 774 774 775 775 774 774 774 774 773 773 773 773 773 772 772 772 771 771
743 744 744 744 745 745 745 745 746 746 746 747 747 747 747 747 747 748 748 748 748 748 748 749 749 750 751 751 752 753 754 755 756 756 757 758 759 760 760 761 762 762 763 764 764 765 766 767 769 770 771 771 771 771 771 772 772 772 773 773 773 773 773 773 773 773 773 774 774 774 774 774 774 774 773 773 773 772 772 772 772 771 771 771 770 770
746 746 746 747 747 747 747 747 748 748 748 749 749 749 749 749 749 749 750 750 750 750 751 751 751 751 752 753 754 755 755 756 757 757 758 758 759 760 761 761 762 762 763 764 764 765 766 767 768 769 770 770 771 771 771 771 772 772 772 772 772 772 772 772 772 773 773 774 774 774 774 773 773 773 772 772 772 771 771 771 771 770 770 769 769 769
748 748 749 749 749 749 749 749 750 750 750 750 750 750 751 751 751 751 751 751 752 752 752 753 753 753 754 755 755 756 756 757 758 758 759 759 760 760 761 761 762 763 763 764 764 765 766 766 767 768 768 769 770 770 771 771 771 771 771 771 771 771 771 772 772 772 773 773 773 773 773 772 772 772 771 771 771 771 770 770 769 769 768 768 767 767
750 750 751 751 751 751 751 751 751 751 751 751 751 751 751 752 752 752 753 753 753 754 754 754 754 755 756 756 756 757 758 758 759 759 760 760 761 761 761 762 762 763 763 764 764 765 766 766 767 767 768 768 769 769 770 770 770 770 771 771 771 771 771 771 772 772 772 773 773 773 772 771 771 771 770 770 770 770 769 769 768 768 767 767 766 766
752 752 752 752 752 752 752 752 752 752 752 752 752 752 753 753 753 754 754 754 755 755 755 756 756 756 756 757 758 758 759 759 760 760 761 761 761 761 762 762 763 763 764 764 765 765 766 766 766 767 767 768 768 769 769 769 770 770 770 770 771 771 771 771 771 772 772 772 772 771 771 770 770 770 769 769 769 768 768 768 767 767 766 766 766 765
753 754 754 753 753 753 753 753 753 753 753 753 753 754 754 754 755 755 755 756 756 756 756 757 757 757 758 758 759 760 760 760 761 761 761 761 762 762 763 763 763 764 764 765 765 766 766 766 766 767 767 767 768 768 769 769 769 770 770 770 770 770 771 771 771 771 771 771 771 770 770 769 769 768 768 768 767 767 767 766 766 766 765 765 765 764
755 755 755 755 755 755 754 754 755 755 755 755 755 755 756 756 756 756 756 756 757 757 757 757 758 758 759 759 760 761 761 761 761 762 762 762 763 763 763 764 764 765 765 765 766 766 766 767 767 767 767 767 768 768 768 769 769 769 769 770 770 770 770 770 770 770 770 770 769 769 768 768 768 767 767 766 766 766 765 765 764 764 764 764 763 763
756 756 756 756 756 756 756 756 756 756 756 756 756 756 757 757 757 757 757 757 757 758 758 758 758 759 759 760 761 761 762 762 762 763 763 763 764 764 764 765 765 765 766 766 766 766 767 767 767 767 767 767 768 768 768 768 769 769 769 769 769 769 769 769 769 769 769 769 768 768 767 767 767 766 766 765 765 764 764 763 763 762 762 762 762 762
757 757 757 757 757 757 757 757 757 757 757 757 757 758 758 758 758 758 758 758 758 759 759 759 759 759 760 761 761 762 762 763 763 764 764 764 765 765 765 765 765 766 766 766 766 766 766 766 767 767 767 767 767 767 767 768 768 768 768 768 768 768 768 768 768 768 768 768 767 767 766 766 766 765 764 764 763 762 762 762 761 761 761 761 761 760
758 758 758 758 758 758 758 758 758 758 758 758 759 759 759 759 759 759 759 759 759 759 760 760 760 760 761 761 762 763 763 764 764 764 765 765 765 765 766 766 766 766 766 766 766 766 766 766 766 766 766 766 767 767 767 767 767 767 767 767 767 767 767 767 767 767 767 767 766 766 766 765 765 764 763 762 761 761 760 760 760 760 760 759 759 759
759 759 759 759 759 759 759 759 759 759 759 759 759 759 759 759 759 759 760 760 760 760 761 761 761 761 762 762 763 763 764 764 765 765 765 765 765 766 766 766 766 766 765 765 765 765 765 765 765 765 766 766 766 766 766 766 766 766 766 766 766 766 766 766 766 766 766 766 766 765 765 764 764 763 762 761 760 759 759 758 758 758 758 758 758 758
760 760 760 760 760 760 760 760 760 760 760 760 760 760 760 760 760 760 760 761 761 761 761 762 762 763 763 763 764 764 764 765 765 765 765 766 766 765 765 765 765 765 765 765 765 764 764 764 764 764 765 765 765 765 765 765 765 766 766 766 766 766 766 766 766 766 765 765 765 765 764 764 763 762 761 760 759 758 757 757 757 757 757 757 757 757
761 761 761 761 761 761 761 761 761 761 761 761 761 761 761 761 760 761 761 761 761 762 763 763 763 764 764 764 765 765 765 765 765 766 766 766 766 765 765 765 765 765 764 764 764 763 763 763 763 764 764 764 765 765 765 765 765 765 765 765 765 765 765 765 765 765 764 764 764 763 763 763 762 761 761 759 758 757 756 756 756 756 756 756 756 756
761 761 761 761 761 761 761 761 761 761 761 761 761 761 761 761 761 761 761 762 762 763 763 764 764 765 765 765 765 765 766 766 766 766 766 766 766 765 765 765 765 765 764 764 763 763 763 763 764 764 764 765 765 765 765 765 765 765 765 765 765 765 765 764 764 764 763 763 763 762 762 761 761 760 759 759 758 756 755 755 754 754 755 755 754 754